owner,sensor,date,latitude,longitude,vertical_datum,sea_water_practical_salinity,qcFlag 
NERRS,ioos:station:NOAA.NERRS:apaebwq:1,2017-12-01T00:45:00Z,29.7858,-84.8752,1.96,28.8,1111122 
NERRS,ioos:station:NOAA.NERRS:apaebwq:1,2017-12-01T01:45:00Z,29.7858,-84.8752,2.03,28.9,1111122 
NERRS,ioos:station:NOAA.NERRS:apaebwq:1,2017-12-01T02:45:00Z,29.7858,-84.8752,2.14,29.0,1111122 
NERRS,ioos:station:NOAA.NERRS:apaebwq:1,2017-12-01T03:45:00Z,29.7858,-84.8752,2.24,29.0,1111122 
NERRS,ioos:station:NOAA.NERRS:apaebwq:1,2017-12-01T04:45:00Z,29.7858,-84.8752,2.29,29.2,1111122 
NERRS,ioos:station:NOAA.NERRS:apaebwq:1,2017-12-01T05:45:00Z,29.7858,-84.8752,2.29,29.2,1111122 
NERRS,ioos:station:NOAA.NERRS:apaebwq:1,2017-12-01T06:45:00Z,29.7858,-84.8752,2.22,29.0,1111122 
NERRS,ioos:station:NOAA.NERRS:apaebwq:1,2017-12-01T07:45:00Z,29.7858,-84.8752,2.11,28.7,1111122 
NERRS,ioos:station:NOAA.NERRS:apaebwq:1,2017-12-01T08:45:00Z,29.7858,-84.8752,2.01,28.6,1111122 
NERRS,ioos:station:NOAA.NERRS:apaebwq:1,2017-12-01T09:45:00Z,29.7858,-84.8752,1.89,28.5,1111122 
NERRS,ioos:station:NOAA.NERRS:apaebwq:1,2017-12-01T10:45:00Z,29.7858,-84.8752,1.79,28.5,1111122 
NERRS,ioos:station:NOAA.NERRS:apaebwq:1,2017-12-01T13:45:00Z,29.7858,-84.8752,1.63,28.4,1111122 
NERRS,ioos:station:NOAA.NERRS:apaebwq:1,2017-12-01T14:45:00Z,29.7858,-84.8752,1.71,28.4,1111122 
NERRS,ioos:station:NOAA.NERRS:apaebwq:1,2017-12-01T15:45:00Z,29.7858,-84.8752,1.88,27.9,1111122 
NERRS,ioos:station:NOAA.NERRS:apaebwq:1,2017-12-01T16:45:00Z,29.7858,-84.8752,2.04,27.1,1111122 
NERRS,ioos:station:NOAA.NERRS:apaebwq:1,2017-12-01T17:45:00Z,29.7858,-84.8752,2.15,25.4,1111122 
NERRS,ioos:station:NOAA.NERRS:apaebwq:1,2017-12-01T18:45:00Z,29.7858,-84.8752,2.24,24.5,1111122 
NERRS,ioos:station:NOAA.NERRS:apaebwq:1,2017-12-01T19:45:00Z,29.7858,-84.8752,2.27,27.2,1111122 
NERRS,ioos:station:NOAA.NERRS:apaebwq:1,2017-12-01T20:45:00Z,29.7858,-84.8752,2.27,27.3,1111122 
NERRS,ioos:station:NOAA.NERRS:apaebwq:1,2017-12-01T21:45:00Z,29.7858,-84.8752,2.22,27.2,1111122 
NERRS,ioos:station:NOAA.NERRS:apaebwq:1,2017-12-01T22:45:00Z,29.7858,-84.8752,2.1,27.2,1111122 
NERRS,ioos:station:NOAA.NERRS:apaebwq:1,2017-12-01T23:45:00Z,29.7858,-84.8752,2.02,27.1,1111122 
NERRS,ioos:station:NOAA.NERRS:apaebwq:1,2017-12-02T00:45:00Z,29.7858,-84.8752,2.03,27.1,1111122 
NERRS,ioos:station:NOAA.NERRS:apaebwq:1,2017-12-02T01:45:00Z,29.7858,-84.8752,2.08,27.0,1111122 
NERRS,ioos:station:NOAA.NERRS:apaebwq:1,2017-12-02T02:45:00Z,29.7858,-84.8752,2.15,27.0,1111122 
NERRS,ioos:station:NOAA.NERRS:apaebwq:1,2017-12-02T03:45:00Z,29.7858,-84.8752,2.24,27.0,1111122 
NERRS,ioos:station:NOAA.NERRS:apaebwq:1,2017-12-02T04:45:00Z,29.7858,-84.8752,2.33,26.6,1111122 
NERRS,ioos:station:NOAA.NERRS:apaebwq:1,2017-12-02T05:45:00Z,29.7858,-84.8752,2.39,26.6,1111122 
NERRS,ioos:station:NOAA.NERRS:apaebwq:1,2017-12-02T06:45:00Z,29.7858,-84.8752,2.37,26.6,1111122 
NERRS,ioos:station:NOAA.NERRS:apaebwq:1,2017-12-02T07:45:00Z,29.7858,-84.8752,2.28,27.0,1111122 
NERRS,ioos:station:NOAA.NERRS:apaebwq:1,2017-12-02T08:45:00Z,29.7858,-84.8752,2.15,26.6,1111122 
NERRS,ioos:station:NOAA.NERRS:apaebwq:1,2017-12-02T09:45:00Z,29.7858,-84.8752,2.03,26.8,1111122 
NERRS,ioos:station:NOAA.NERRS:apaebwq:1,2017-12-02T10:45:00Z,29.7858,-84.8752,1.91,26.9,1111122 
NERRS,ioos:station:NOAA.NERRS:apaebwq:1,2017-12-02T11:45:00Z,29.7858,-84.8752,1.8,24.5,1111122 
NERRS,ioos:station:NOAA.NERRS:apaebwq:1,2017-12-02T12:45:00Z,29.7858,-84.8752,1.71,24.1,1111122 
NERRS,ioos:station:NOAA.NERRS:apaebwq:1,2017-12-02T13:45:00Z,29.7858,-84.8752,1.64,24.2,1111122 
NERRS,ioos:station:NOAA.NERRS:apaebwq:1,2017-12-02T14:45:00Z,29.7858,-84.8752,1.62,24.1,1111122 
NERRS,ioos:station:NOAA.NERRS:apaebwq:1,2017-12-02T15:45:00Z,29.7858,-84.8752,1.69,25.1,1111122 
NERRS,ioos:station:NOAA.NERRS:apaebwq:1,2017-12-02T16:45:00Z,29.7858,-84.8752,1.86,24.9,1111122 
NERRS,ioos:station:NOAA.NERRS:apaebwq:1,2017-12-02T17:45:00Z,29.7858,-84.8752,2.03,24.5,1111122 
NERRS,ioos:station:NOAA.NERRS:apaebwq:1,2017-12-02T18:45:00Z,29.7858,-84.8752,2.16,24.5,1111122 
NERRS,ioos:station:NOAA.NERRS:apaebwq:1,2017-12-02T19:45:00Z,29.7858,-84.8752,2.27,24.2,1111122 
NERRS,ioos:station:NOAA.NERRS:apaebwq:1,2017-12-02T20:45:00Z,29.7858,-84.8752,2.33,24.2,1111122 
NERRS,ioos:station:NOAA.NERRS:apaebwq:1,2017-12-02T21:45:00Z,29.7858,-84.8752,2.33,24.0,1111122 
NERRS,ioos:station:NOAA.NERRS:apaebwq:1,2017-12-02T22:45:00Z,29.7858,-84.8752,2.26,24.1,1111122 
NERRS,ioos:station:NOAA.NERRS:apaebwq:1,2017-12-02T23:45:00Z,29.7858,-84.8752,2.16,24.0,1111122 
NERRS,ioos:station:NOAA.NERRS:apaebwq:1,2017-12-03T00:45:00Z,29.7858,-84.8752,2.1,23.9,1111122 
NERRS,ioos:station:NOAA.NERRS:apaebwq:1,2017-12-03T01:45:00Z,29.7858,-84.8752,2.11,23.9,1111122 
NERRS,ioos:station:NOAA.NERRS:apaebwq:1,2017-12-03T02:45:00Z,29.7858,-84.8752,2.16,23.9,1111122 
NERRS,ioos:station:NOAA.NERRS:apaebwq:1,2017-12-03T03:45:00Z,29.7858,-84.8752,2.22,23.9,1111122 
NERRS,ioos:station:NOAA.NERRS:apaebwq:1,2017-12-03T04:45:00Z,29.7858,-84.8752,2.31,23.6,1111122 
NERRS,ioos:station:NOAA.NERRS:apaebwq:1,2017-12-03T05:45:00Z,29.7858,-84.8752,2.4,23.6,1111122 
NERRS,ioos:station:NOAA.NERRS:apaebwq:1,2017-12-03T06:45:00Z,29.7858,-84.8752,2.43,23.7,1111122 
NERRS,ioos:station:NOAA.NERRS:apaebwq:1,2017-12-03T07:45:00Z,29.7858,-84.8752,2.37,23.6,1111122 
NERRS,ioos:station:NOAA.NERRS:apaebwq:1,2017-12-03T08:45:00Z,29.7858,-84.8752,2.25,23.8,1111122 
NERRS,ioos:station:NOAA.NERRS:apaebwq:1,2017-12-03T09:45:00Z,29.7858,-84.8752,2.12,23.7,1111122 
NERRS,ioos:station:NOAA.NERRS:apaebwq:1,2017-12-03T10:45:00Z,29.7858,-84.8752,1.98,23.2,1111122 
NERRS,ioos:station:NOAA.NERRS:apaebwq:1,2017-12-03T11:45:00Z,29.7858,-84.8752,1.86,23.2,1111122 
NERRS,ioos:station:NOAA.NERRS:apaebwq:1,2017-12-03T12:45:00Z,29.7858,-84.8752,1.77,23.3,1111122 
NERRS,ioos:station:NOAA.NERRS:apaebwq:1,2017-12-03T13:45:00Z,29.7858,-84.8752,1.68,23.5,1111122 
NERRS,ioos:station:NOAA.NERRS:apaebwq:1,2017-12-03T14:45:00Z,29.7858,-84.8752,1.6,23.7,1111122 
NERRS,ioos:station:NOAA.NERRS:apaebwq:1,2017-12-03T15:45:00Z,29.7858,-84.8752,1.58,23.9,1111122 
NERRS,ioos:station:NOAA.NERRS:apaebwq:1,2017-12-03T16:45:00Z,29.7858,-84.8752,1.66,23.6,1111122 
NERRS,ioos:station:NOAA.NERRS:apaebwq:1,2017-12-03T17:45:00Z,29.7858,-84.8752,1.83,23.5,1111122 
NERRS,ioos:station:NOAA.NERRS:apaebwq:1,2017-12-03T18:45:00Z,29.7858,-84.8752,2.03,23.2,1111122 
NERRS,ioos:station:NOAA.NERRS:apaebwq:1,2017-12-03T19:45:00Z,29.7858,-84.8752,2.19,23.1,1111122 
NERRS,ioos:station:NOAA.NERRS:apaebwq:1,2017-12-03T20:45:00Z,29.7858,-84.8752,2.29,22.9,1111122 
NERRS,ioos:station:NOAA.NERRS:apaebwq:1,2017-12-03T21:45:00Z,29.7858,-84.8752,2.35,22.9,1111122 
NERRS,ioos:station:NOAA.NERRS:apaebwq:1,2017-12-03T22:45:00Z,29.7858,-84.8752,2.35,22.8,1111122 
NERRS,ioos:station:NOAA.NERRS:apaebwq:1,2017-12-03T23:45:00Z,29.7858,-84.8752,2.29,22.6,1111122 
NERRS,ioos:station:NOAA.NERRS:apaebwq:1,2017-12-04T00:45:00Z,29.7858,-84.8752,2.19,23.1,1111122 
NERRS,ioos:station:NOAA.NERRS:apaebwq:1,2017-12-04T01:45:00Z,29.7858,-84.8752,2.12,23.2,1111122 
NERRS,ioos:station:NOAA.NERRS:apaebwq:1,2017-12-04T02:45:00Z,29.7858,-84.8752,2.13,23.1,1111122 
NERRS,ioos:station:NOAA.NERRS:apaebwq:1,2017-12-04T03:45:00Z,29.7858,-84.8752,2.15,23.0,1111122 
NERRS,ioos:station:NOAA.NERRS:apaebwq:1,2017-12-04T04:45:00Z,29.7858,-84.8752,2.23,22.8,1111122 
NERRS,ioos:station:NOAA.NERRS:apaebwq:1,2017-12-04T05:45:00Z,29.7858,-84.8752,2.36,22.5,1111122 
NERRS,ioos:station:NOAA.NERRS:apaebwq:1,2017-12-04T06:45:00Z,29.7858,-84.8752,2.39,22.6,1111122 
NERRS,ioos:station:NOAA.NERRS:apaebwq:1,2017-12-04T07:45:00Z,29.7858,-84.8752,2.38,22.6,1111122 
NERRS,ioos:station:NOAA.NERRS:apaebwq:1,2017-12-04T08:45:00Z,29.7858,-84.8752,2.32,22.8,1111122 
NERRS,ioos:station:NOAA.NERRS:apaebwq:1,2017-12-04T09:45:00Z,29.7858,-84.8752,2.24,22.9,1111122 
NERRS,ioos:station:NOAA.NERRS:apaebwq:1,2017-12-04T10:45:00Z,29.7858,-84.8752,2.13,22.9,1111122 
NERRS,ioos:station:NOAA.NERRS:apaebwq:1,2017-12-04T11:45:00Z,29.7858,-84.8752,1.99,22.9,1111122 
NERRS,ioos:station:NOAA.NERRS:apaebwq:1,2017-12-04T12:45:00Z,29.7858,-84.8752,1.87,23.2,1111122 
NERRS,ioos:station:NOAA.NERRS:apaebwq:1,2017-12-04T13:45:00Z,29.7858,-84.8752,1.76,23.3,1111122 
NERRS,ioos:station:NOAA.NERRS:apaebwq:1,2017-12-04T14:45:00Z,29.7858,-84.8752,1.68,23.6,1111122 
NERRS,ioos:station:NOAA.NERRS:apaebwq:1,2017-12-04T15:45:00Z,29.7858,-84.8752,1.62,23.8,1111122 
NERRS,ioos:station:NOAA.NERRS:apaebwq:1,2017-12-04T16:45:00Z,29.7858,-84.8752,1.6,23.8,1111122 
NERRS,ioos:station:NOAA.NERRS:apaebwq:1,2017-12-04T17:45:00Z,29.7858,-84.8752,1.68,23.6,1111122 
NERRS,ioos:station:NOAA.NERRS:apaebwq:1,2017-12-04T18:45:00Z,29.7858,-84.8752,1.85,23.3,1111122 
NERRS,ioos:station:NOAA.NERRS:apaebwq:1,2017-12-04T19:45:00Z,29.7858,-84.8752,2.05,23.0,1111122 
NERRS,ioos:station:NOAA.NERRS:apaebwq:1,2017-12-04T20:45:00Z,29.7858,-84.8752,2.22,22.9,1111122 
NERRS,ioos:station:NOAA.NERRS:apaebwq:1,2017-12-04T21:45:00Z,29.7858,-84.8752,2.3,23.1,1111122 
NERRS,ioos:station:NOAA.NERRS:apaebwq:1,2017-12-04T22:45:00Z,29.7858,-84.8752,2.34,23.1,1111122 
NERRS,ioos:station:NOAA.NERRS:apaebwq:1,2017-12-04T23:45:00Z,29.7858,-84.8752,2.34,23.4,1111122 
NERRS,ioos:station:NOAA.NERRS:apaebwq:1,2017-12-05T00:45:00Z,29.7858,-84.8752,2.3,23.5,1111122 
NERRS,ioos:station:NOAA.NERRS:apaebwq:1,2017-12-05T01:45:00Z,29.7858,-84.8752,2.23,23.4,1111122 
NERRS,ioos:station:NOAA.NERRS:apaebwq:1,2017-12-05T02:45:00Z,29.7858,-84.8752,2.22,23.3,1111122 
NERRS,ioos:station:NOAA.NERRS:apaebwq:1,2017-12-05T03:45:00Z,29.7858,-84.8752,2.25,23.3,1111122 
NERRS,ioos:station:NOAA.NERRS:apaebwq:1,2017-12-05T04:45:00Z,29.7858,-84.8752,2.31,23.2,1111122 
NERRS,ioos:station:NOAA.NERRS:apaebwq:1,2017-12-05T05:45:00Z,29.7858,-84.8752,2.38,23.2,1111122 
NERRS,ioos:station:NOAA.NERRS:apaebwq:1,2017-12-05T06:45:00Z,29.7858,-84.8752,2.46,23.4,1111122 
NERRS,ioos:station:NOAA.NERRS:apaebwq:1,2017-12-05T07:45:00Z,29.7858,-84.8752,2.49,23.4,1111122 
NERRS,ioos:station:NOAA.NERRS:apaebwq:1,2017-12-05T08:45:00Z,29.7858,-84.8752,2.48,23.5,1111122 
NERRS,ioos:station:NOAA.NERRS:apaebwq:1,2017-12-05T09:45:00Z,29.7858,-84.8752,2.4,23.5,1111122 
NERRS,ioos:station:NOAA.NERRS:apaebwq:1,2017-12-05T10:45:00Z,29.7858,-84.8752,2.28,23.3,1111122 
NERRS,ioos:station:NOAA.NERRS:apaebwq:1,2017-12-05T11:45:00Z,29.7858,-84.8752,2.15,23.2,1111122 
NERRS,ioos:station:NOAA.NERRS:apaebwq:1,2017-12-05T12:45:00Z,29.7858,-84.8752,2.01,23.1,1111122 
NERRS,ioos:station:NOAA.NERRS:apaebwq:1,2017-12-05T13:45:00Z,29.7858,-84.8752,1.9,23.3,1111122 
NERRS,ioos:station:NOAA.NERRS:apaebwq:1,2017-12-05T14:45:00Z,29.7858,-84.8752,1.79,23.5,1111122 
NERRS,ioos:station:NOAA.NERRS:apaebwq:1,2017-12-05T15:45:00Z,29.7858,-84.8752,1.71,23.5,1111122 
NERRS,ioos:station:NOAA.NERRS:apaebwq:1,2017-12-05T16:45:00Z,29.7858,-84.8752,1.65,23.5,1111122 
NERRS,ioos:station:NOAA.NERRS:apaebwq:1,2017-12-05T17:45:00Z,29.7858,-84.8752,1.65,23.5,1111122 
NERRS,ioos:station:NOAA.NERRS:apaebwq:1,2017-12-05T18:45:00Z,29.7858,-84.8752,1.77,23.4,1111122 
NERRS,ioos:station:NOAA.NERRS:apaebwq:1,2017-12-05T19:45:00Z,29.7858,-84.8752,1.96,23.3,1111122 
NERRS,ioos:station:NOAA.NERRS:apaebwq:1,2017-12-05T20:45:00Z,29.7858,-84.8752,2.15,23.6,1111122 
NERRS,ioos:station:NOAA.NERRS:apaebwq:1,2017-12-05T21:45:00Z,29.7858,-84.8752,2.27,23.6,1111122 
NERRS,ioos:station:NOAA.NERRS:apaebwq:1,2017-12-05T22:45:00Z,29.7858,-84.8752,2.34,23.9,1111122 
NERRS,ioos:station:NOAA.NERRS:apaebwq:1,2017-12-05T23:45:00Z,29.7858,-84.8752,2.36,23.9,1111122 
NERRS,ioos:station:NOAA.NERRS:apaebwq:1,2017-12-06T00:45:00Z,29.7858,-84.8752,2.35,23.9,1111122 
NERRS,ioos:station:NOAA.NERRS:apaebwq:1,2017-12-06T01:45:00Z,29.7858,-84.8752,2.3,23.8,1111122 
NERRS,ioos:station:NOAA.NERRS:apaebwq:1,2017-12-06T02:45:00Z,29.7858,-84.8752,2.27,23.4,1111122 
NERRS,ioos:station:NOAA.NERRS:apaebwq:1,2017-12-06T03:45:00Z,29.7858,-84.8752,2.27,23.4,1111122 
NERRS,ioos:station:NOAA.NERRS:apaebwq:1,2017-12-06T04:45:00Z,29.7858,-84.8752,2.28,23.4,1111122 
NERRS,ioos:station:NOAA.NERRS:apaebwq:1,2017-12-06T05:45:00Z,29.7858,-84.8752,2.31,23.4,1111122 
NERRS,ioos:station:NOAA.NERRS:apaebwq:1,2017-12-06T06:45:00Z,29.7858,-84.8752,2.39,23.4,1111122 
NERRS,ioos:station:NOAA.NERRS:apaebwq:1,2017-12-06T07:45:00Z,29.7858,-84.8752,2.47,23.4,1111122 
NERRS,ioos:station:NOAA.NERRS:apaebwq:1,2017-12-06T08:45:00Z,29.7858,-84.8752,2.52,23.5,1111122 
NERRS,ioos:station:NOAA.NERRS:apaebwq:1,2017-12-06T09:45:00Z,29.7858,-84.8752,2.47,23.4,1111122 
NERRS,ioos:station:NOAA.NERRS:apaebwq:1,2017-12-06T10:45:00Z,29.7858,-84.8752,2.33,23.1,1111122 
NERRS,ioos:station:NOAA.NERRS:apaebwq:1,2017-12-06T11:45:00Z,29.7858,-84.8752,2.21,23.0,1111122 
NERRS,ioos:station:NOAA.NERRS:apaebwq:1,2017-12-06T12:45:00Z,29.7858,-84.8752,2.06,23.1,1111122 
NERRS,ioos:station:NOAA.NERRS:apaebwq:1,2017-12-06T13:45:00Z,29.7858,-84.8752,1.95,23.1,1111122 
NERRS,ioos:station:NOAA.NERRS:apaebwq:1,2017-12-06T14:45:00Z,29.7858,-84.8752,1.84,23.1,1111122 
NERRS,ioos:station:NOAA.NERRS:apaebwq:1,2017-12-06T15:45:00Z,29.7858,-84.8752,1.73,23.0,1111122 
NERRS,ioos:station:NOAA.NERRS:apaebwq:1,2017-12-06T16:45:00Z,29.7858,-84.8752,1.64,22.9,1111122 
NERRS,ioos:station:NOAA.NERRS:apaebwq:1,2017-12-06T17:45:00Z,29.7858,-84.8752,1.58,23.0,1111122 
NERRS,ioos:station:NOAA.NERRS:apaebwq:1,2017-12-06T18:45:00Z,29.7858,-84.8752,1.61,23.0,1111122 
NERRS,ioos:station:NOAA.NERRS:apaebwq:1,2017-12-06T19:45:00Z,29.7858,-84.8752,1.65,22.8,1111122 
NERRS,ioos:station:NOAA.NERRS:apaebwq:1,2017-12-06T20:45:00Z,29.7858,-84.8752,1.8,22.9,1111122 
NERRS,ioos:station:NOAA.NERRS:apaebwq:1,2017-12-06T21:45:00Z,29.7858,-84.8752,1.9,22.9,1111122 
NERRS,ioos:station:NOAA.NERRS:apaebwq:1,2017-12-06T22:45:00Z,29.7858,-84.8752,2.02,22.6,1111122 
NERRS,ioos:station:NOAA.NERRS:apaebwq:1,2017-12-06T23:45:00Z,29.7858,-84.8752,2.09,22.4,1111122 
NERRS,ioos:station:NOAA.NERRS:apaebwq:1,2017-12-07T00:45:00Z,29.7858,-84.8752,2.14,22.5,1111122 
NERRS,ioos:station:NOAA.NERRS:apaebwq:1,2017-12-07T01:45:00Z,29.7858,-84.8752,2.11,22.4,1111122 
NERRS,ioos:station:NOAA.NERRS:apaebwq:1,2017-12-07T02:45:00Z,29.7858,-84.8752,2.06,22.2,1111122 
NERRS,ioos:station:NOAA.NERRS:apaebwq:1,2017-12-07T03:45:00Z,29.7858,-84.8752,1.98,22.8,1111122 
NERRS,ioos:station:NOAA.NERRS:apaebwq:1,2017-12-07T04:45:00Z,29.7858,-84.8752,1.92,22.7,1111122 
NERRS,ioos:station:NOAA.NERRS:apaebwq:1,2017-12-07T05:45:00Z,29.7858,-84.8752,1.96,22.7,1111122 
NERRS,ioos:station:NOAA.NERRS:apaebwq:1,2017-12-07T06:45:00Z,29.7858,-84.8752,2.03,22.6,1111122 
NERRS,ioos:station:NOAA.NERRS:apaebwq:1,2017-12-07T07:45:00Z,29.7858,-84.8752,2.1,22.5,1111122 
NERRS,ioos:station:NOAA.NERRS:apaebwq:1,2017-12-07T08:45:00Z,29.7858,-84.8752,2.13,22.8,1111122 
NERRS,ioos:station:NOAA.NERRS:apaebwq:1,2017-12-07T09:45:00Z,29.7858,-84.8752,2.16,22.7,1111122 
NERRS,ioos:station:NOAA.NERRS:apaebwq:1,2017-12-07T11:45:00Z,29.7858,-84.8752,2.09,22.4,1111122 
NERRS,ioos:station:NOAA.NERRS:apaebwq:1,2017-12-07T12:45:00Z,29.7858,-84.8752,1.97,22.7,1111122 
NERRS,ioos:station:NOAA.NERRS:apaebwq:1,2017-12-07T13:45:00Z,29.7858,-84.8752,1.86,22.4,1111122 
NERRS,ioos:station:NOAA.NERRS:apaebwq:1,2017-12-07T14:45:00Z,29.7858,-84.8752,1.73,22.7,1111122 
NERRS,ioos:station:NOAA.NERRS:apaebwq:1,2017-12-07T15:45:00Z,29.7858,-84.8752,1.64,22.6,1111122 
NERRS,ioos:station:NOAA.NERRS:apaebwq:1,2017-12-07T16:45:00Z,29.7858,-84.8752,1.53,22.8,1111122 
NERRS,ioos:station:NOAA.NERRS:apaebwq:1,2017-12-07T17:45:00Z,29.7858,-84.8752,1.44,23.1,1111122 
NERRS,ioos:station:NOAA.NERRS:apaebwq:1,2017-12-07T18:45:00Z,29.7858,-84.8752,1.39,23.2,1111122 
NERRS,ioos:station:NOAA.NERRS:apaebwq:1,2017-12-07T19:45:00Z,29.7858,-84.8752,1.42,23.2,1111122 
NERRS,ioos:station:NOAA.NERRS:apaebwq:1,2017-12-07T21:45:00Z,29.7858,-84.8752,1.68,22.5,1111122 
NERRS,ioos:station:NOAA.NERRS:apaebwq:1,2017-12-07T22:45:00Z,29.7858,-84.8752,1.85,22.6,1111122 
NERRS,ioos:station:NOAA.NERRS:apaebwq:1,2017-12-07T23:45:00Z,29.7858,-84.8752,1.99,22.3,1111122 
NERRS,ioos:station:NOAA.NERRS:apaebwq:1,2017-12-08T00:45:00Z,29.7858,-84.8752,2.04,22.2,1111122 
NERRS,ioos:station:NOAA.NERRS:apaebwq:1,2017-12-08T01:45:00Z,29.7858,-84.8752,2.04,22.2,1111122 
NERRS,ioos:station:NOAA.NERRS:apaebwq:1,2017-12-08T02:45:00Z,29.7858,-84.8752,1.98,22.4,1111122 
NERRS,ioos:station:NOAA.NERRS:apaebwq:1,2017-12-08T03:45:00Z,29.7858,-84.8752,1.93,21.9,1111122 
NERRS,ioos:station:NOAA.NERRS:apaebwq:1,2017-12-08T04:45:00Z,29.7858,-84.8752,1.88,22.6,1111122 
NERRS,ioos:station:NOAA.NERRS:apaebwq:1,2017-12-08T05:45:00Z,29.7858,-84.8752,1.92,22.2,1111122 
NERRS,ioos:station:NOAA.NERRS:apaebwq:1,2017-12-08T06:45:00Z,29.7858,-84.8752,2.01,21.6,1111122 
NERRS,ioos:station:NOAA.NERRS:apaebwq:1,2017-12-08T07:45:00Z,29.7858,-84.8752,2.12,22.4,1111122 
NERRS,ioos:station:NOAA.NERRS:apaebwq:1,2017-12-08T08:45:00Z,29.7858,-84.8752,2.18,21.7,1111122 
NERRS,ioos:station:NOAA.NERRS:apaebwq:1,2017-12-08T09:45:00Z,29.7858,-84.8752,2.18,21.5,1111122 
NERRS,ioos:station:NOAA.NERRS:apaebwq:1,2017-12-08T10:45:00Z,29.7858,-84.8752,2.17,21.3,1111122 
NERRS,ioos:station:NOAA.NERRS:apaebwq:1,2017-12-08T11:45:00Z,29.7858,-84.8752,2.14,21.0,1111122 
NERRS,ioos:station:NOAA.NERRS:apaebwq:1,2017-12-08T12:45:00Z,29.7858,-84.8752,2.09,21.1,1111122 
NERRS,ioos:station:NOAA.NERRS:apaebwq:1,2017-12-08T13:45:00Z,29.7858,-84.8752,1.99,22.0,1111122 
NERRS,ioos:station:NOAA.NERRS:apaebwq:1,2017-12-08T14:45:00Z,29.7858,-84.8752,1.91,22.2,1111122 
NERRS,ioos:station:NOAA.NERRS:apaebwq:1,2017-12-08T15:45:00Z,29.7858,-84.8752,1.83,22.3,1111122 
NERRS,ioos:station:NOAA.NERRS:apaebwq:1,2017-12-08T16:45:00Z,29.7858,-84.8752,1.75,22.1,1111122 
NERRS,ioos:station:NOAA.NERRS:apaebwq:1,2017-12-08T17:45:00Z,29.7858,-84.8752,1.65,22.2,1111122 
NERRS,ioos:station:NOAA.NERRS:apaebwq:1,2017-12-08T18:45:00Z,29.7858,-84.8752,1.52,22.1,1111122 
NERRS,ioos:station:NOAA.NERRS:apaebwq:1,2017-12-08T19:45:00Z,29.7858,-84.8752,1.44,22.6,1111122 
NERRS,ioos:station:NOAA.NERRS:apaebwq:1,2017-12-08T20:45:00Z,29.7858,-84.8752,1.47,22.4,1111122 
NERRS,ioos:station:NOAA.NERRS:apaebwq:1,2017-12-08T21:45:00Z,29.7858,-84.8752,1.62,22.1,1111122 
NERRS,ioos:station:NOAA.NERRS:apaebwq:1,2017-12-08T22:45:00Z,29.7858,-84.8752,1.81,21.6,1111122 
NERRS,ioos:station:NOAA.NERRS:apaebwq:1,2017-12-08T23:45:00Z,29.7858,-84.8752,2.01,22.6,1111122 
NERRS,ioos:station:NOAA.NERRS:apaebwq:1,2017-12-09T00:45:00Z,29.7858,-84.8752,2.07,23.1,1111122 
NERRS,ioos:station:NOAA.NERRS:apaebwq:1,2017-12-09T01:45:00Z,29.7858,-84.8752,2.1,22.8,1111122 
NERRS,ioos:station:NOAA.NERRS:apaebwq:1,2017-12-09T02:45:00Z,29.7858,-84.8752,2.12,22.6,1111122 
NERRS,ioos:station:NOAA.NERRS:apaebwq:1,2017-12-09T03:45:00Z,29.7858,-84.8752,2.1,22.5,1111122 
NERRS,ioos:station:NOAA.NERRS:apaebwq:1,2017-12-09T04:45:00Z,29.7858,-84.8752,2.1,21.7,1111122 
NERRS,ioos:station:NOAA.NERRS:apaebwq:1,2017-12-09T05:45:00Z,29.7858,-84.8752,2.05,21.9,1111122 
NERRS,ioos:station:NOAA.NERRS:apaebwq:1,2017-12-09T06:45:00Z,29.7858,-84.8752,2.0,22.0,1111122 
NERRS,ioos:station:NOAA.NERRS:apaebwq:1,2017-12-09T07:45:00Z,29.7858,-84.8752,1.98,22.2,1111122 
NERRS,ioos:station:NOAA.NERRS:apaebwq:1,2017-12-09T08:45:00Z,29.7858,-84.8752,2.07,22.0,1111122 
NERRS,ioos:station:NOAA.NERRS:apaebwq:1,2017-12-09T09:45:00Z,29.7858,-84.8752,2.15,21.9,1111122 
NERRS,ioos:station:NOAA.NERRS:apaebwq:1,2017-12-09T10:45:00Z,29.7858,-84.8752,2.2,21.6,1111122 
NERRS,ioos:station:NOAA.NERRS:apaebwq:1,2017-12-09T11:45:00Z,29.7858,-84.8752,2.15,21.6,1111122 
NERRS,ioos:station:NOAA.NERRS:apaebwq:1,2017-12-09T12:45:00Z,29.7858,-84.8752,2.05,22.0,1111122 
NERRS,ioos:station:NOAA.NERRS:apaebwq:1,2017-12-09T13:45:00Z,29.7858,-84.8752,2.02,22.1,1111122 
NERRS,ioos:station:NOAA.NERRS:apaebwq:1,2017-12-09T14:45:00Z,29.7858,-84.8752,1.93,22.1,1111122 
NERRS,ioos:station:NOAA.NERRS:apaebwq:1,2017-12-09T15:45:00Z,29.7858,-84.8752,1.86,22.1,1111122 
NERRS,ioos:station:NOAA.NERRS:apaebwq:1,2017-12-09T16:45:00Z,29.7858,-84.8752,1.75,22.1,1111122 
NERRS,ioos:station:NOAA.NERRS:apaebwq:1,2017-12-09T17:45:00Z,29.7858,-84.8752,1.68,22.1,1111122 
NERRS,ioos:station:NOAA.NERRS:apaebwq:1,2017-12-09T18:45:00Z,29.7858,-84.8752,1.59,22.2,1111122 
NERRS,ioos:station:NOAA.NERRS:apaebwq:1,2017-12-09T19:45:00Z,29.7858,-84.8752,1.5,22.3,1111122 
NERRS,ioos:station:NOAA.NERRS:apaebwq:1,2017-12-09T20:45:00Z,29.7858,-84.8752,1.47,22.3,1111122 
NERRS,ioos:station:NOAA.NERRS:apaebwq:1,2017-12-09T21:45:00Z,29.7858,-84.8752,1.52,22.4,1111122 
NERRS,ioos:station:NOAA.NERRS:apaebwq:1,2017-12-09T22:45:00Z,29.7858,-84.8752,1.62,22.3,1111122 
NERRS,ioos:station:NOAA.NERRS:apaebwq:1,2017-12-09T23:45:00Z,29.7858,-84.8752,1.73,22.2,1111122 
NERRS,ioos:station:NOAA.NERRS:apaebwq:1,2017-12-10T00:45:00Z,29.7858,-84.8752,1.79,22.2,1111122 
NERRS,ioos:station:NOAA.NERRS:apaebwq:1,2017-12-10T01:45:00Z,29.7858,-84.8752,1.79,22.2,1111122 
NERRS,ioos:station:NOAA.NERRS:apaebwq:1,2017-12-10T02:45:00Z,29.7858,-84.8752,1.79,22.2,1111122 
NERRS,ioos:station:NOAA.NERRS:apaebwq:1,2017-12-10T03:45:00Z,29.7858,-84.8752,1.78,22.2,1111122 
NERRS,ioos:station:NOAA.NERRS:apaebwq:1,2017-12-10T04:45:00Z,29.7858,-84.8752,1.73,22.3,1111122 
NERRS,ioos:station:NOAA.NERRS:apaebwq:1,2017-12-10T05:45:00Z,29.7858,-84.8752,1.69,22.3,1111122 
NERRS,ioos:station:NOAA.NERRS:apaebwq:1,2017-12-10T06:45:00Z,29.7858,-84.8752,1.64,22.2,1111122 
NERRS,ioos:station:NOAA.NERRS:apaebwq:1,2017-12-10T07:45:00Z,29.7858,-84.8752,1.59,22.3,1111122 
NERRS,ioos:station:NOAA.NERRS:apaebwq:1,2017-12-10T08:45:00Z,29.7858,-84.8752,1.58,22.3,1111122 
NERRS,ioos:station:NOAA.NERRS:apaebwq:1,2017-12-10T09:45:00Z,29.7858,-84.8752,1.59,22.3,1111122 
NERRS,ioos:station:NOAA.NERRS:apaebwq:1,2017-12-10T10:45:00Z,29.7858,-84.8752,1.61,22.3,1111122 
NERRS,ioos:station:NOAA.NERRS:apaebwq:1,2017-12-10T11:45:00Z,29.7858,-84.8752,1.63,22.3,1111122 
NERRS,ioos:station:NOAA.NERRS:apaebwq:1,2017-12-10T12:45:00Z,29.7858,-84.8752,1.67,22.3,1111122 
NERRS,ioos:station:NOAA.NERRS:apaebwq:1,2017-12-10T13:45:00Z,29.7858,-84.8752,1.72,22.3,1111122 
NERRS,ioos:station:NOAA.NERRS:apaebwq:1,2017-12-10T14:45:00Z,29.7858,-84.8752,1.75,22.2,1111122 
NERRS,ioos:station:NOAA.NERRS:apaebwq:1,2017-12-10T15:45:00Z,29.7858,-84.8752,1.73,22.3,1111122 
NERRS,ioos:station:NOAA.NERRS:apaebwq:1,2017-12-10T16:45:00Z,29.7858,-84.8752,1.69,22.3,1111122 
NERRS,ioos:station:NOAA.NERRS:apaebwq:1,2017-12-10T17:45:00Z,29.7858,-84.8752,1.66,22.4,1111122 
NERRS,ioos:station:NOAA.NERRS:apaebwq:1,2017-12-10T18:45:00Z,29.7858,-84.8752,1.65,22.3,1111122 
NERRS,ioos:station:NOAA.NERRS:apaebwq:1,2017-12-10T19:45:00Z,29.7858,-84.8752,1.65,22.3,1111122 
NERRS,ioos:station:NOAA.NERRS:apaebwq:1,2017-12-10T20:45:00Z,29.7858,-84.8752,1.67,22.3,1111122 
NERRS,ioos:station:NOAA.NERRS:apaebwq:1,2017-12-10T21:45:00Z,29.7858,-84.8752,1.71,22.3,1111122 
NERRS,ioos:station:NOAA.NERRS:apaebwq:1,2017-12-10T22:45:00Z,29.7858,-84.8752,1.75,22.2,1111122 
NERRS,ioos:station:NOAA.NERRS:apaebwq:1,2017-12-10T23:45:00Z,29.7858,-84.8752,1.8,22.1,1111122 
NERRS,ioos:station:NOAA.NERRS:apaebwq:1,2017-12-11T00:45:00Z,29.7858,-84.8752,1.88,21.8,1111122 
NERRS,ioos:station:NOAA.NERRS:apaebwq:1,2017-12-11T01:45:00Z,29.7858,-84.8752,1.94,21.2,1111122 
NERRS,ioos:station:NOAA.NERRS:apaebwq:1,2017-12-11T02:45:00Z,29.7858,-84.8752,1.99,21.4,1111122 
NERRS,ioos:station:NOAA.NERRS:apaebwq:1,2017-12-11T03:45:00Z,29.7858,-84.8752,2.03,21.4,1111122 
NERRS,ioos:station:NOAA.NERRS:apaebwq:1,2017-12-11T04:45:00Z,29.7858,-84.8752,2.01,21.6,1111122 
NERRS,ioos:station:NOAA.NERRS:apaebwq:1,2017-12-11T05:45:00Z,29.7858,-84.8752,1.95,21.8,1111122 
NERRS,ioos:station:NOAA.NERRS:apaebwq:1,2017-12-11T06:45:00Z,29.7858,-84.8752,1.88,21.8,1111122 
NERRS,ioos:station:NOAA.NERRS:apaebwq:1,2017-12-11T07:45:00Z,29.7858,-84.8752,1.81,21.9,1111122 
NERRS,ioos:station:NOAA.NERRS:apaebwq:1,2017-12-11T08:45:00Z,29.7858,-84.8752,1.77,22.0,1111122 
NERRS,ioos:station:NOAA.NERRS:apaebwq:1,2017-12-11T09:45:00Z,29.7858,-84.8752,1.74,22.0,1111122 